DLH3WH EDDM-LIEO

Flight info

Callsign DLH3WH
Flight time 1h 23m
Altitude 37000
Route TURBU6E TURBU Y107 TOBSO DCT BAKOR DCT VESAL DCT LAMPO DCT ROKIB DCT VIC DCT KOPER DCT LUMAV DCT GOXIN DCT OGAPU DCT BIKTU DCT NUKNI DCT MAMAR DCT PIDUL DCT GITRI
Aircraft A320/M-SDE3FGHIRWY/LB1

Departure

Time 2026-05-04 15:44
Airport Munich Airport (EDDM)

Arrival

Time 2026-05-04 17:07
Airport Olbia Costa Smeralda Airport (LIEO)
Time Latitude Longitude Altitude Speed Heading
2026-05-04 14:47 48.35423 11.80022 1475 ft 0 kts 263°
2026-05-04 15:26 48.35425 11.80052 1475 ft 3 kts 263°
2026-05-04 15:27 48.35428 11.80082 1476 ft 3 kts 263°
2026-05-04 15:27 48.35435 11.80138 1475 ft 3 kts 231°
2026-05-04 15:28 48.35468 11.80159 1475 ft 2 kts 175°
2026-05-04 15:28 48.35473 11.80158 1479 ft 0 kts 173°
2026-05-04 15:32 48.35423 11.80168 1478 ft 9 kts 169°
2026-05-04 15:33 48.35258 11.80211 1474 ft 12 kts 173°
2026-05-04 15:34 48.35159 11.80072 1476 ft 6 kts 263°
2026-05-04 15:34 48.35155 11.80015 1475 ft 7 kts 263°
2026-05-04 15:34 48.35136 11.79768 1485 ft 13 kts 263°
2026-05-04 15:35 48.35076 11.79518 1480 ft 14 kts 181°
2026-05-04 15:35 48.34988 11.79536 1478 ft 12 kts 173°
2026-05-04 15:35 48.34912 11.79549 1475 ft 10 kts 174°
2026-05-04 15:36 48.34787 11.79515 1485 ft 12 kts 251°
2026-05-04 15:36 48.34777 11.79365 1485 ft 16 kts 264°
2026-05-04 15:36 48.34761 11.79173 1485 ft 20 kts 263°
2026-05-04 15:37 48.34744 11.78950 1485 ft 22 kts 264°
2026-05-04 15:37 48.34726 11.78714 1481 ft 23 kts 263°
2026-05-04 15:37 48.34707 11.78466 1482 ft 24 kts 263°
2026-05-04 15:37 48.34687 11.78208 1485 ft 25 kts 263°
2026-05-04 15:38 48.34667 11.77944 1485 ft 25 kts 263°
2026-05-04 15:38 48.34649 11.77710 1485 ft 23 kts 262°
2026-05-04 15:38 48.34629 11.77471 1485 ft 23 kts 263°
2026-05-04 15:38 48.34611 11.77230 1479 ft 24 kts 263°
2026-05-04 15:39 48.34593 11.76975 1477 ft 25 kts 264°
2026-05-04 15:39 48.34572 11.76711 1485 ft 26 kts 263°
2026-05-04 15:39 48.34532 11.76171 1485 ft 25 kts 263°
2026-05-04 15:40 48.34511 11.75909 1479 ft 25 kts 263°
2026-05-04 15:40 48.34492 11.75659 1476 ft 23 kts 263°
2026-05-04 15:40 48.34475 11.75431 1485 ft 22 kts 264°
2026-05-04 15:40 48.34457 11.75242 1485 ft 13 kts 248°
2026-05-04 15:41 48.34381 11.75224 1484 ft 11 kts 172°
2026-05-04 15:41 48.34310 11.75237 1480 ft 9 kts 173°
2026-05-04 15:41 48.34250 11.75247 1481 ft 8 kts 173°
2026-05-04 15:41 48.34199 11.75256 1481 ft 6 kts 174°
2026-05-04 15:42 48.34189 11.75257 1480 ft 0 kts 174°
2026-05-04 15:42 48.34164 11.75261 1485 ft 7 kts 174°
2026-05-04 15:42 48.34099 11.75301 1485 ft 13 kts 127°
2026-05-04 15:43 48.34098 11.75488 1485 ft 28 kts 83°
2026-05-04 15:43 48.34150 11.76154 1473 ft 98 kts 83°
2026-05-04 15:43 48.34250 11.77454 1473 ft 150 kts 83°
2026-05-04 15:43 48.34395 11.79157 1795 ft 166 kts 81°
2026-05-04 15:44 48.34529 11.80861 2493 ft 164 kts 83°
2026-05-04 15:44 48.34655 11.82614 2945 ft 178 kts 84°
2026-05-04 15:44 48.34797 11.84585 3224 ft 200 kts 83°
2026-05-04 15:44 48.34955 11.86750 3555 ft 215 kts 83°
2026-05-04 15:45 48.35130 11.89103 3869 ft 238 kts 83°
2026-05-04 15:45 48.35323 11.91643 4494 ft 249 kts 83°
2026-05-04 15:45 48.35312 11.94246 5318 ft 252 kts 104°
2026-05-04 15:45 48.34544 11.96594 6163 ft 253 kts 131°
2026-05-04 15:46 48.33687 11.97781 6717 ft 254 kts 143°
2026-05-04 15:46 48.32291 11.99410 7591 ft 255 kts 144°
2026-05-04 15:46 48.30874 12.01045 8426 ft 258 kts 147°
2026-05-04 15:46 48.29212 12.02233 8913 ft 273 kts 170°
2026-05-04 15:47 48.27309 12.02264 9657 ft 276 kts 188°
2026-05-04 15:47 48.25389 12.01889 10310 ft 286 kts 189°
2026-05-04 15:47 48.23341 12.01465 10566 ft 309 kts 189°
2026-05-04 15:47 48.21133 12.00996 10775 ft 331 kts 189°
2026-05-04 15:48 48.18811 12.00506 11280 ft 342 kts 188°
2026-05-04 15:48 48.16440 12.00011 11982 ft 346 kts 188°
2026-05-04 15:48 48.11613 11.99014 13425 ft 353 kts 188°
2026-05-04 15:49 48.09170 11.98516 14081 ft 357 kts 188°
2026-05-04 15:49 48.06696 11.98011 14665 ft 361 kts 188°
2026-05-04 15:49 48.04202 11.97500 14878 ft 362 kts 188°
2026-05-04 15:49 48.01707 11.96988 15058 ft 364 kts 189°
2026-05-04 15:50 47.99192 11.96473 15722 ft 366 kts 189°
2026-05-04 15:50 47.96660 11.95953 16377 ft 368 kts 189°
2026-05-04 15:50 47.94105 11.95427 16982 ft 372 kts 189°
2026-05-04 15:50 47.91524 11.94927 17560 ft 377 kts 186°
2026-05-04 15:51 47.88881 11.94819 18160 ft 381 kts 182°
2026-05-04 15:51 47.86220 11.94776 18670 ft 385 kts 182°
2026-05-04 15:51 47.83565 11.94729 19183 ft 388 kts 182°
2026-05-04 15:51 47.80853 11.94675 19701 ft 391 kts 182°
2026-05-04 15:52 47.78120 11.94619 20218 ft 394 kts 182°
2026-05-04 15:52 47.75367 11.94563 20710 ft 397 kts 182°
2026-05-04 15:52 47.72587 11.94510 21189 ft 401 kts 182°
2026-05-04 15:52 47.69784 11.94463 21653 ft 405 kts 182°
2026-05-04 15:53 47.66958 11.94415 22060 ft 408 kts 182°
2026-05-04 15:53 47.64104 11.94366 22471 ft 411 kts 182°
2026-05-04 15:53 47.61229 11.94316 22907 ft 415 kts 182°
2026-05-04 15:53 47.58332 11.94265 23337 ft 417 kts 182°
2026-05-04 15:54 47.55419 11.94213 23753 ft 419 kts 182°
2026-05-04 15:54 47.52490 11.94163 24124 ft 421 kts 182°
2026-05-04 15:54 47.49556 11.94116 24491 ft 424 kts 182°
2026-05-04 15:54 47.46601 11.94066 24856 ft 426 kts 182°
2026-05-04 15:55 47.43634 11.94001 25204 ft 427 kts 184°
2026-05-04 15:55 47.40668 11.93534 25546 ft 428 kts 189°
2026-05-04 15:55 47.37708 11.92939 25900 ft 430 kts 189°
2026-05-04 15:55 47.34743 11.92340 26286 ft 431 kts 189°
2026-05-04 15:56 47.31764 11.91741 26626 ft 432 kts 189°
2026-05-04 15:56 47.28780 11.91141 26946 ft 434 kts 189°
2026-05-04 15:56 47.25777 11.90539 27272 ft 437 kts 189°
2026-05-04 15:56 47.22758 11.89937 27574 ft 438 kts 189°
2026-05-04 15:57 47.19729 11.89334 27848 ft 440 kts 189°
2026-05-04 15:57 47.16691 11.88730 28169 ft 441 kts 189°
2026-05-04 15:57 47.13650 11.88131 28511 ft 441 kts 189°
2026-05-04 15:57 47.10600 11.87535 28752 ft 443 kts 189°
2026-05-04 15:58 47.07548 11.86938 28998 ft 443 kts 189°
2026-05-04 15:58 47.04493 11.86338 29382 ft 441 kts 189°
2026-05-04 15:58 47.01496 11.85741 29733 ft 440 kts 190°
2026-05-04 15:58 46.98482 11.84989 30065 ft 440 kts 192°
2026-05-04 15:59 46.95488 11.84078 30380 ft 439 kts 194°
2026-05-04 15:59 46.92473 11.83055 30697 ft 438 kts 195°
2026-05-04 15:59 46.89521 11.82017 31011 ft 437 kts 195°
2026-05-04 15:59 46.86568 11.80991 31287 ft 436 kts 194°
2026-05-04 16:00 46.83647 11.80012 31620 ft 435 kts 194°
2026-05-04 16:00 46.80698 11.79059 31934 ft 434 kts 193°
2026-05-04 16:00 46.77752 11.78137 32228 ft 432 kts 193°
2026-05-04 16:00 46.74811 11.77229 32555 ft 431 kts 193°
2026-05-04 16:01 46.71884 11.76322 32866 ft 429 kts 193°
2026-05-04 16:01 46.68966 11.75408 33170 ft 429 kts 194°
2026-05-04 16:01 46.66053 11.74489 33468 ft 428 kts 194°
2026-05-04 16:01 46.63144 11.73567 33766 ft 427 kts 194°
2026-05-04 16:02 46.60213 11.72843 34032 ft 428 kts 187°
2026-05-04 16:02 46.57234 11.72641 34257 ft 429 kts 184°
2026-05-04 16:02 46.51266 11.72321 34715 ft 429 kts 184°
2026-05-04 16:03 46.48280 11.72154 34927 ft 430 kts 185°
2026-05-04 16:03 46.45293 11.71987 35132 ft 430 kts 185°
2026-05-04 16:03 46.42300 11.71821 35357 ft 430 kts 185°
2026-05-04 16:03 46.39306 11.71659 35590 ft 431 kts 185°
2026-05-04 16:04 46.36310 11.71498 35789 ft 431 kts 185°
2026-05-04 16:04 46.30318 11.71182 36169 ft 431 kts 185°
2026-05-04 16:04 46.27320 11.71022 36347 ft 431 kts 185°
2026-05-04 16:05 46.24361 11.70864 36508 ft 431 kts 185°
2026-05-04 16:05 46.21363 11.70703 36690 ft 431 kts 185°
2026-05-04 16:05 46.15362 11.70385 37056 ft 431 kts 185°
2026-05-04 16:06 46.12350 11.70227 37100 ft 434 kts 185°
2026-05-04 16:07 46.00266 11.69588 37095 ft 434 kts 185°
2026-05-04 16:08 45.88174 11.68937 37098 ft 435 kts 186°
2026-05-04 16:09 45.73074 11.68129 37084 ft 436 kts 186°
2026-05-04 16:10 45.60948 11.67468 37072 ft 436 kts 186°
2026-05-04 16:11 45.48802 11.66553 37056 ft 437 kts 187°
2026-05-04 16:12 45.30525 11.65222 37063 ft 439 kts 187°
2026-05-04 16:13 45.18288 11.64342 37073 ft 440 kts 187°
2026-05-04 16:14 45.06079 11.63447 37074 ft 441 kts 187°
2026-05-04 16:16 44.90723 11.62317 37084 ft 442 kts 187°
2026-05-04 16:17 44.75345 11.61116 37080 ft 442 kts 188°
2026-05-04 16:18 44.63045 11.59859 37081 ft 443 kts 188°
2026-05-04 16:19 44.47705 11.58428 37078 ft 443 kts 189°
2026-05-04 16:20 44.32313 11.56944 37108 ft 443 kts 189°
2026-05-04 16:22 44.16907 11.55484 37136 ft 444 kts 189°
2026-05-04 16:23 43.98433 11.54067 37125 ft 449 kts 181°
2026-05-04 16:25 43.79727 11.55449 37103 ft 443 kts 191°
2026-05-04 16:26 43.58623 11.50546 37107 ft 440 kts 196°
2026-05-04 16:28 43.43534 11.47012 37100 ft 440 kts 197°
2026-05-04 16:29 43.22413 11.42067 37111 ft 441 kts 197°
2026-05-04 16:31 43.07280 11.38551 37123 ft 442 kts 197°
2026-05-04 16:32 42.89088 11.34354 37115 ft 442 kts 197°
2026-05-04 16:33 42.76986 11.31576 37118 ft 442 kts 197°
2026-05-04 16:34 42.67885 11.29487 37135 ft 442 kts 197°
2026-05-04 16:35 42.49755 11.25340 37129 ft 440 kts 197°
2026-05-04 16:36 42.41718 11.23523 37112 ft 440 kts 196°
2026-05-04 16:37 42.32657 11.21483 37114 ft 440 kts 197°
2026-05-04 16:38 42.20581 11.18755 37114 ft 440 kts 196°
2026-05-04 16:39 42.05477 11.15360 37094 ft 440 kts 197°
2026-05-04 16:40 41.93429 11.12660 37106 ft 440 kts 197°
2026-05-04 16:41 41.78761 11.07896 37096 ft 422 kts 217°
2026-05-04 16:42 41.71694 11.01097 36614 ft 418 kts 223°
2026-05-04 16:43 41.67029 10.96485 35669 ft 416 kts 223°
2026-05-04 16:43 41.62398 10.91909 34783 ft 412 kts 223°
2026-05-04 16:43 41.60097 10.89629 34355 ft 411 kts 223°
2026-05-04 16:44 41.50914 10.80551 32406 ft 415 kts 223°
2026-05-04 16:45 41.46235 10.75946 31425 ft 421 kts 222°
2026-05-04 16:46 41.39096 10.68944 30011 ft 428 kts 222°
2026-05-04 16:46 41.34279 10.64214 28962 ft 433 kts 221°
2026-05-04 16:47 41.29396 10.59423 27942 ft 439 kts 221°
2026-05-04 16:47 41.24473 10.54628 26954 ft 436 kts 220°
2026-05-04 16:48 41.17198 10.47561 25553 ft 431 kts 219°
2026-05-04 16:48 41.14750 10.45185 25094 ft 430 kts 219°
2026-05-04 16:49 41.09973 10.40546 24207 ft 427 kts 219°
2026-05-04 16:49 41.05251 10.35836 23271 ft 421 kts 225°
2026-05-04 16:50 41.01473 10.30048 22264 ft 413 kts 233°
2026-05-04 16:50 40.97891 10.24178 21279 ft 407 kts 232°
2026-05-04 16:51 40.94616 10.18148 20343 ft 400 kts 245°
2026-05-04 16:51 40.93686 10.14716 19898 ft 397 kts 257°
2026-05-04 16:51 40.93573 10.07517 19091 ft 395 kts 276°
2026-05-04 16:52 40.94303 10.00342 18282 ft 392 kts 276°
2026-05-04 16:52 40.94660 9.96769 17828 ft 388 kts 276°
2026-05-04 16:53 40.94628 9.89860 16935 ft 372 kts 255°
2026-05-04 16:53 40.90930 9.81189 15644 ft 354 kts 236°
2026-05-04 16:54 40.89556 9.78553 15228 ft 349 kts 236°
2026-05-04 16:55 40.84367 9.68610 13574 ft 300 kts 236°
2026-05-04 16:55 40.82089 9.64247 12691 ft 278 kts 236°
2026-05-04 16:56 40.79914 9.60081 11829 ft 277 kts 235°
2026-05-04 16:56 40.76642 9.53828 10543 ft 272 kts 235°
2026-05-04 16:57 40.75576 9.51786 10109 ft 268 kts 235°
2026-05-04 16:57 40.73483 9.47791 9178 ft 260 kts 235°
2026-05-04 16:58 40.70465 9.42057 7828 ft 248 kts 235°
2026-05-04 16:58 40.69486 9.40196 7379 ft 245 kts 234°
2026-05-04 16:59 40.67557 9.36541 6512 ft 239 kts 234°
2026-05-04 17:00 40.68455 9.29220 5760 ft 233 kts 319°
2026-05-04 17:00 40.72286 9.25400 5170 ft 223 kts 318°
2026-05-04 17:01 40.75162 9.24584 4763 ft 228 kts 28°
2026-05-04 17:01 40.77192 9.27522 4431 ft 211 kts 54°
2026-05-04 17:02 40.78848 9.30644 3993 ft 205 kts 57°
2026-05-04 17:02 40.80431 9.33773 3569 ft 204 kts 57°
2026-05-04 17:03 40.81238 9.35325 3281 ft 204 kts 56°
2026-05-04 17:03 40.82038 9.36849 2970 ft 205 kts 57°
2026-05-04 17:03 40.83648 9.39910 2317 ft 203 kts 56°
2026-05-04 17:04 40.85195 9.42853 1692 ft 182 kts 57°
2026-05-04 17:04 40.86505 9.45346 1189 ft 148 kts 57°
2026-05-04 17:05 40.87614 9.47471 727 ft 137 kts 59°
2026-05-04 17:05 40.88737 9.49610 319 ft 144 kts 56°
2026-05-04 17:06 40.89832 9.51701 33 ft 116 kts 56°
2026-05-04 17:06 40.90193 9.52388 35 ft 68 kts 55°
2026-05-04 17:07 40.90445 9.52662 34 ft 13 kts 300°
2026-05-04 17:07 40.90453 9.52602 34 ft 9 kts 274°
2026-05-04 17:07 40.90450 9.52497 34 ft 8 kts 250°
2026-05-04 17:07 40.90423 9.52437 34 ft 7 kts 235°
2026-05-04 17:08 40.90395 9.52384 34 ft 9 kts 235°
2026-05-04 17:08 40.90274 9.52151 34 ft 19 kts 235°
2026-05-04 17:08 40.90203 9.52015 34 ft 15 kts 235°
2026-05-04 17:09 40.90178 9.51892 34 ft 14 kts 282°
2026-05-04 17:09 40.90200 9.51806 34 ft 8 kts 309°
2026-05-04 17:09 40.90216 9.51755 34 ft 6 kts 253°
2026-05-04 17:10 40.90175 9.51674 34 ft 6 kts 234°
2026-05-04 17:10 40.90169 9.51538 34 ft 4 kts 325°
2026-05-04 17:11 40.90179 9.51529 34 ft 0 kts 325°